Location: Torch Lake Township
(45.0753°N, 85.3586°W)
Time: 12:35:00
(UTC-04:00)

Amateur Radio Satellites - All Passes

Search period start: 21 July 2017 12:04
Search period end: 22 July 2017 12:04
Location: Torch Lake Township, 45.0753°N, 85.3586°W

Satellite Date Start Highest point End Downlink Frequencies (MHz)
Time Altitude Azimuth
Oscar 11 21 Jul 12:06:05 12:08:06 13° 299° (WNW) 12:10:08 .
EO-88 21 Jul 12:28:42 12:31:49 27° 291° (WNW) 12:34:55 145.990 - 145.960
POLYITAN 1 21 Jul 12:29:28 12:33:42 67° 74° (ENE) 12:37:58 437.675
ESTCUBE 1 21 Jul 12:30:20 12:34:07 26° 94° (E) 12:37:55 437.505/2401.250
DELFI C3 21 Jul 12:31:21 12:34:19 20° 294° (WNW) 12:37:17 145.870
DUCHIFAT 1 21 Jul 12:33:40 12:37:50 60° 73° (ENE) 12:42:02 145.980
QB50P2 21 Jul 12:42:11 12:46:29 82° 259° (W) 12:50:46 145.880/145.840
LO-87 21 Jul 12:46:47 12:50:23 64° 100° (E) 12:53:58 145.935 - 145.965
AIST 2D 21 Jul 12:49:04 12:52:06 28° 264° (W) 12:55:09 435.315
FO-29 21 Jul 12:54:25 12:55:38 10° 281° (WNW) 12:56:52 435.910
EO-79 21 Jul 12:55:54 13:00:08 64° 258° (WSW) 13:04:24 145.935-145.965
NANOSAT C BR1 21 Jul 12:58:48 13:03:02 65° 259° (W) 13:07:17 145.865
Gurwin Techsat 1B 21 Jul 13:05:21 13:08:21 15° 57° (ENE) 13:11:21 435.225
Oscar 19 21 Jul 13:12:21 13:16:26 25° 63° (ENE) 13:20:31 437.125/150
BUGSAT 1 21 Jul 13:19:46 13:23:56 57° 73° (ENE) 13:28:06 437.445
SPROUT 21 Jul 13:22:49 13:26:18 24° 94° (E) 13:29:44 437.525
NO-84 21 Jul 13:29:05 13:32:01 39° 135° (SE) 13:35:13 435.350 FM
VELOX 1 21 Jul 13:34:54 13:38:44 27° 95° (E) 13:42:33 145.980
PCSat 21 Jul 13:41:28 13:43:46 13° 28° (NNE) 13:46:03 145.827
AO-85 21 Jul 13:51:26 13:53:50 15° 112° (ESE) 13:56:12 145.980
DX 1 21 Jul 13:55:23 13:57:47 14° 90° (E) 14:00:10 434.975-435.025
BEESAT 3 21 Jul 13:58:04 14:00:41 17° 111° (ESE) 14:03:20 437.485
ESTCUBE 1 21 Jul 14:06:53 14:10:57 34° 292° (WNW) 14:15:02 437.505/2401.250
POLYITAN 1 21 Jul 14:08:11 14:09:56 12° 271° (W) 14:11:40 437.675
DUCHIFAT 1 21 Jul 14:11:45 14:13:53 14° 270° (W) 14:16:01 145.980
LO-87 21 Jul 14:22:34 14:23:17 10° 298° (WNW) 14:24:00 145.935 - 145.965
50 SAT 21 Jul 14:28:43 14:32:01 43° 99° (E) 14:35:18 437.505
BEESAT 2 21 Jul 14:29:06 14:30:45 12° 109° (ESE) 14:32:25 435.950
Gurwin Techsat 1B 21 Jul 14:42:14 14:47:34 87° 255° (WSW) 14:52:56 435.225
UKube-1 21 Jul 14:45:43 14:49:36 31° 97° (E) 14:53:28 .
AO-7 21 Jul 14:49:54 14:57:13 35° 55° (NE) 15:04:33 .
Oscar 19 21 Jul 14:50:33 14:55:28 47° 261° (W) 15:00:26 437.125/150
ITAMSAT 1 21 Jul 14:55:10 14:58:46 19° 59° (ENE) 15:02:21 435.822/435.867
BUGSAT 1 21 Jul 14:57:18 14:59:37 14° 270° (W) 15:01:58 437.445
SPROUT 21 Jul 14:58:23 15:02:15 34° 291° (WNW) 15:06:05 437.525
SO-50 21 Jul 15:06:23 15:08:53 14° 31° (NNE) 15:11:24 436.795
NO-84 21 Jul 15:06:33 15:09:33 32° 336° (NNW) 15:12:49 435.350 FM
VELOX 1 21 Jul 15:11:13 15:15:10 32° 293° (WNW) 15:19:08 145.980
PCSat 21 Jul 15:23:20 15:28:35 46° 51° (NE) 15:33:47 145.827
AO-85 21 Jul 15:29:55 15:33:49 53° 309° (NW) 15:37:40 145.980
DX 1 21 Jul 15:30:01 15:34:21 60° 288° (WNW) 15:38:39 434.975-435.025
BEESAT 3 21 Jul 15:33:58 15:37:52 52° 309° (NW) 15:41:51 437.485
50 SAT 21 Jul 16:02:42 16:04:24 13° 296° (WNW) 16:06:05 437.505
BEESAT 2 21 Jul 16:03:56 16:07:55 71° 307° (NW) 16:11:59 435.950
BEESAT 21 Jul 16:18:45 16:23:02 32° 97° (E) 16:27:17 436.000
MOZHAYETS 4 21 Jul 16:19:24 16:23:09 25° 94° (E) 16:26:52
UKube-1 21 Jul 16:21:53 16:25:31 27° 294° (WNW) 16:29:09 .
Gurwin Techsat 1B 21 Jul 16:26:25 16:28:17 12° 273° (W) 16:30:08 435.225
ITUPSAT 1 21 Jul 16:29:00 16:33:29 39° 98° (E) 16:37:56 437.325
RS-15 21 Jul 16:31:38 16:42:15 37° 106° (ESE) 16:52:59 29.354- 29.394
ITAMSAT 1 21 Jul 16:32:30 16:37:42 67° 258° (WSW) 16:42:56 435.822/435.867
AO-7 21 Jul 16:41:17 16:49:32 63° 256° (WSW) 16:57:53 .
NO-84 21 Jul 16:45:27 16:47:55 17° 358° (N) 16:50:32 435.350 FM
SO-50 21 Jul 16:45:41 16:50:13 66° 52° (NE) 16:54:45 436.795
O/OREOS (USA 219) 21 Jul 16:57:56 17:02:16 50° 109° (ESE) 17:06:37 437.305
PCSat 21 Jul 17:07:07 17:11:46 30° 250° (WSW) 17:16:23 145.827
DOVE 4 21 Jul 17:12:39 17:16:18 21° 62° (ENE) 17:20:05 437.250
AO-85 21 Jul 17:14:45 17:15:07 10° 331° (NNW) 17:15:28 145.980
BEESAT 3 21 Jul 17:15:24 17:16:23 11° 330° (NNW) 17:17:21 437.485
KKS-1 21 Jul 17:31:24 17:33:57 15° 90° (E) 17:36:31 437.445
BEESAT 2 21 Jul 17:44:29 17:46:26 13° 327° (NNW) 17:48:22 435.950
CUTE-I 21 Jul 17:51:48 17:55:52 22° 61° (ENE) 17:59:55 437.470
MOZHAYETS 4 21 Jul 17:56:13 18:00:23 36° 291° (WNW) 18:04:33
BEESAT 21 Jul 17:56:35 18:00:44 31° 294° (WNW) 18:04:53 436.000
XW-2D 21 Jul 17:57:14 17:59:48 18° 66° (ENE) 18:02:22 145.860 - 145.880
XW-2B 21 Jul 18:06:46 18:09:40 22° 67° (ENE) 18:12:35 145.730 - 145.750
ITUPSAT 1 21 Jul 18:07:13 18:11:07 26° 296° (WNW) 18:15:00 437.325
STARS 21 Jul 18:12:33 18:15:26 17° 92° (E) 18:18:18 437.465
CUBESAT XI-V 21 Jul 18:19:21 18:24:01 83° 101° (E) 18:28:43 437.345
HO-68 21 Jul 18:19:49 18:24:53 21° 53° (NE) 18:29:56 435.675
NO-84 21 Jul 18:23:15 18:26:25 25° 19° (NNE) 18:29:45 435.350 FM
XW-2C 21 Jul 18:23:18 18:26:42 33° 70° (ENE) 18:30:06 145.795 - 145.815
SO-50 21 Jul 18:27:20 18:30:11 17° 249° (WSW) 18:33:03 436.795
O/OREOS (USA 219) 21 Jul 18:38:35 18:41:57 20° 308° (NW) 18:45:20 437.305
AO-7 21 Jul 18:41:18 18:43:59 12° 276° (W) 18:46:41 .
LilacSat-2 21 Jul 18:41:32 18:45:15 58° 74° (ENE) 18:48:58 437.200
RS-15 21 Jul 18:41:35 18:53:51 75° 309° (NW) 19:06:17 29.354- 29.394
NUDT-PHONESAT 21 Jul 18:47:17 18:50:50 46° 73° (ENE) 18:54:23 437.300
DOVE 4 21 Jul 18:48:52 18:53:33 53° 262° (W) 18:58:31 437.250
CUTE 1.7 + AOD 2 21 Jul 18:50:41 18:52:51 14° 62° (ENE) 18:55:00 437.475
KAITUO 1B 21 Jul 18:55:31 18:59:09 61° 74° (ENE) 19:02:48 145.475/437.950
XW-2F 21 Jul 19:04:07 19:07:52 83° 257° (WSW) 19:11:37 145.980 - 146.000
KKS-1 21 Jul 19:06:28 19:10:54 59° 288° (WNW) 19:15:17 437.445
SEEDS 21 Jul 19:10:40 19:12:55 14° 62° (ENE) 19:15:09 437.485
CUBEBUG 2 21 Jul 19:23:06 19:26:22 19° 63° (ENE) 19:29:35 437.445
YUBILEINY 21 Jul 19:26:41 19:34:35 39° 85° (E) 19:42:29 435.215
CUTE-I 21 Jul 19:30:12 19:35:29 58° 259° (W) 19:40:49 437.470
XW-2D 21 Jul 19:30:14 19:33:44 36° 262° (W) 19:37:14 145.860 - 145.880
XW-2A 21 Jul 19:35:53 19:38:28 21° 68° (ENE) 19:41:05 145.665 - 145.685
XW-2B 21 Jul 19:40:24 19:43:43 29° 264° (W) 19:47:02 145.730 - 145.750
STARS 21 Jul 19:47:46 19:52:04 51° 289° (WNW) 19:56:19 437.465
XW-2C 21 Jul 19:58:17 20:00:59 19° 267° (W) 20:03:41 145.795 - 145.815
CUBESAT XI-V 21 Jul 19:58:37 20:00:45 13° 301° (WNW) 20:02:53 437.345
AO-73 21 Jul 20:00:20 20:02:24 13° 61° (ENE) 20:04:28 145.935
NO-84 21 Jul 20:00:24 20:04:20 85° 36° (NE) 20:08:32 435.350 FM
HO-68 21 Jul 20:04:30 20:11:42 90° 65° (ENE) 20:18:56 435.675
AAUSAT CUBESAT 2 21 Jul 20:05:07 20:08:26 24° 67° (ENE) 20:11:47 437.432
LilacSat-2 21 Jul 20:18:49 20:19:53 11° 271° (W) 20:20:58 437.200
NUDT-PHONESAT 21 Jul 20:23:15 20:24:59 13° 269° (W) 20:26:44 437.300
CUTE 1.7 + AOD 2 21 Jul 20:24:01 20:28:11 63° 259° (W) 20:32:22 437.475
UWE-3 21 Jul 20:28:15 20:32:40 46° 72° (ENE) 20:37:00 435.000/436.395/437.385
SEEDS 21 Jul 20:44:02 20:48:07 59° 259° (W) 20:52:15 437.485
ZACube-1 21 Jul 20:51:12 20:55:28 45° 71° (ENE) 20:59:39 437.345
RS-15 21 Jul 20:57:51 21:08:50 35° 339° (NNW) 21:19:45 29.354- 29.394
CUBEBUG 2 21 Jul 20:57:56 21:02:34 55° 260° (W) 21:07:10 437.445
XW-2A 21 Jul 21:08:17 21:11:06 24° 264° (W) 21:13:56 145.665 - 145.685
STRAND 1 21 Jul 21:09:11 21:14:18 68° 102° (ESE) 21:19:23 437.568
YUBILEINY 21 Jul 21:22:33 21:31:07 52° 286° (WNW) 21:39:43 435.215
Oscar 11 21 Jul 21:24:30 21:28:45 68° 74° (ENE) 21:33:03 .
AO-73 21 Jul 21:33:38 21:38:05 74° 257° (WSW) 21:42:29 145.935
EO-88 21 Jul 21:35:54 21:37:47 14° 64° (ENE) 21:39:40 145.990 - 145.960
NO-84 21 Jul 21:38:51 21:41:29 17° 232° (SW) 21:44:12 435.350 FM
AAUSAT CUBESAT 2 21 Jul 21:40:08 21:43:46 31° 264° (W) 21:47:27 437.432
DELFI C3 21 Jul 21:43:20 21:46:40 27° 68° (ENE) 21:50:01 145.870
Tancredo 1 21 Jul 21:48:12 21:49:38 13° 134° (SE) 21:51:04 437.200
HO-68 21 Jul 21:55:47 22:00:21 18° 272° (W) 22:04:57 435.675
UWE-3 21 Jul 22:05:57 22:09:19 20° 268° (W) 22:12:38 435.000/436.395/437.385
FO-29 21 Jul 22:10:43 22:16:27 24° 88° (E) 22:21:42 435.910
BEESAT 3 21 Jul 22:11:45 22:15:00 23° 42° (NE) 22:18:13 437.485
AO-85 21 Jul 22:18:29 22:22:08 29° 45° (NE) 22:25:58 145.980
ZACube-1 21 Jul 22:28:42 22:31:56 19° 268° (W) 22:35:07 437.345
PRISM 21 Jul 22:37:28 22:39:03 12° 89° (E) 22:40:40 437.425
BEESAT 2 21 Jul 22:42:43 22:45:41 19° 39° (NE) 22:48:37 435.950
STRAND 1 21 Jul 22:49:33 22:52:56 18° 300° (WNW) 22:56:19 437.568
nSIGHT-1 21 Jul 22:51:23 22:53:57 22° 138° (SE) 22:56:34 .
UNISAT 6 21 Jul 23:03:20 23:07:07 28° 95° (E) 23:10:48 437.425
Oscar 11 21 Jul 23:03:40 23:05:21 12° 271° (W) 23:07:02 .
EO-88 21 Jul 23:07:33 23:11:03 46° 260° (W) 23:14:36 145.990 - 145.960
RS-15 21 Jul 23:15:25 23:26:04 32° 13° (NNE) 23:36:22 29.354- 29.394
DELFI C3 21 Jul 23:18:07 23:21:24 25° 265° (W) 23:24:42 145.870
Tancredo 1 21 Jul 23:21:43 23:24:40 83° 334° (NNW) 23:27:37 437.200
LO-87 21 Jul 23:24:31 23:27:49 34° 71° (ENE) 23:31:09 145.935 - 145.965
YUBILEINY 21 Jul 23:27:47 23:30:29 11° 311° (NW) 23:33:12 435.215
ESTCUBE 1 21 Jul 23:31:38 23:35:31 30° 67° (ENE) 23:39:27 437.505/2401.250
ISS 21 Jul 23:41:12 23:44:25 61° 146° (SE) 23:47:38 437.550
TIGRISAT 21 Jul 23:48:21 23:52:45 78° 102° (ESE) 23:57:01 435.000
BEESAT 3 21 Jul 23:48:56 23:52:46 45° 241° (WSW) 23:56:33 437.485
FO-29 21 Jul 23:54:48 00:02:12 69° 289° (WNW) 00:08:45 435.910
M-CUBED/EXP-1 PRIME 21 Jul 23:56:09 00:00:25 38° 103° (ESE) 00:04:45 437.505
AO-85 21 Jul 23:58:41 00:02:34 36° 242° (WSW) 00:06:41 145.980
PRISM 22 Jul 00:10:37 00:14:46 66° 286° (WNW) 00:18:54 437.425
AIST 2D 22 Jul 00:12:17 00:14:39 17° 93° (E) 00:17:01 435.315
SPROUT 22 Jul 00:17:57 00:21:25 24° 66° (ENE) 00:24:53 437.525
BEESAT 2 22 Jul 00:19:47 00:23:49 63° 238° (WSW) 00:27:48 435.950
QB50P2 22 Jul 00:26:29 00:28:43 14° 90° (E) 00:30:56 145.880/145.840
nSIGHT-1 22 Jul 00:26:57 00:30:09 58° 335° (NNW) 00:33:21 .
VELOX 1 22 Jul 00:33:50 00:37:43 31° 68° (ENE) 00:41:39 145.980
EO-79 22 Jul 00:39:24 00:42:16 18° 92° (E) 00:45:07 145.935-145.965
UNISAT 6 22 Jul 00:40:01 00:43:48 29° 293° (WNW) 00:47:31 437.425
NANOSAT C BR1 22 Jul 00:42:00 00:44:47 17° 92° (E) 00:47:31 145.865
DX 1 22 Jul 00:52:44 00:55:35 17° 62° (ENE) 00:58:26 434.975-435.025
Tancredo 1 22 Jul 00:57:52 01:00:23 25° 350° (N) 01:02:55 437.200
LO-87 22 Jul 00:58:55 01:01:22 17° 267° (W) 01:03:50 145.935 - 145.965
50 SAT 22 Jul 01:02:21 01:04:59 22° 68° (ENE) 01:07:40 437.505
ESTCUBE 1 22 Jul 01:08:24 01:12:17 29° 265° (W) 01:16:12 437.505/2401.250
ISS 22 Jul 01:18:04 01:21:04 33° 345° (NNW) 01:24:03 437.550
TIGRISAT 22 Jul 01:27:00 01:28:47 12° 301° (WNW) 01:30:33 435.000
O/OREOS (USA 219) 22 Jul 01:27:21 01:30:27 18° 51° (NE) 01:33:33 437.305
RS-15 22 Jul 01:29:35 01:41:43 61° 45° (NE) 01:53:12 29.354- 29.394
M-CUBED/EXP-1 PRIME 22 Jul 01:30:51 01:34:39 27° 299° (WNW) 01:38:32 437.505
FO-29 22 Jul 01:41:35 01:45:45 16° 311° (NW) 01:49:44 435.910
UKube-1 22 Jul 01:41:49 01:45:44 34° 68° (ENE) 01:49:40 .
AIST 2D 22 Jul 01:44:50 01:47:56 30° 289° (WNW) 01:51:01 435.315
POLYITAN 1 22 Jul 01:47:50 01:52:04 85° 284° (WNW) 01:56:15 437.675
DUCHIFAT 1 22 Jul 01:51:00 01:55:14 84° 106° (ESE) 01:59:24 145.980
SPROUT 22 Jul 01:53:13 01:57:09 34° 263° (W) 02:01:07 437.525
QB50P2 22 Jul 02:00:43 02:04:52 56° 287° (WNW) 02:08:59 145.880/145.840
nSIGHT-1 22 Jul 02:04:15 02:07:00 25° 355° (N) 02:09:46 .
VELOX 1 22 Jul 02:10:23 02:14:10 27° 265° (W) 02:17:59 145.980
EO-79 22 Jul 02:14:13 02:18:15 44° 289° (WNW) 02:22:14 145.935-145.965
NANOSAT C BR1 22 Jul 02:16:41 02:20:44 46° 289° (WNW) 02:24:44 145.865
DX 1 22 Jul 02:27:05 02:31:21 54° 259° (W) 02:35:39 434.975-435.025
Tancredo 1 22 Jul 02:33:54 02:36:25 25° 10° (N) 02:38:58 437.200
BUGSAT 1 22 Jul 02:34:40 02:38:48 74° 102° (ESE) 02:42:52 437.445
50 SAT 22 Jul 02:34:52 02:37:38 23° 265° (W) 02:40:26 437.505
ISS 22 Jul 02:55:21 02:58:08 25° 5° (N) 03:00:56 437.550
Gurwin Techsat 1B 22 Jul 02:56:43 03:01:27 32° 95° (E) 03:06:10 435.225
Oscar 19 22 Jul 02:59:41 03:04:43 51° 100° (E) 03:09:45 437.125/150
O/OREOS (USA 219) 22 Jul 03:05:50 03:10:16 59° 250° (WSW) 03:14:40 437.305
UKube-1 22 Jul 03:18:20 03:21:49 24° 266° (W) 03:25:19 .
MOZHAYETS 4 22 Jul 03:22:59 03:26:59 30° 67° (ENE) 03:30:58
BEESAT 22 Jul 03:26:45 03:31:19 47° 70° (ENE) 03:35:54 436.000
DUCHIFAT 1 22 Jul 03:29:05 03:30:14 11° 301° (WNW) 03:31:22 145.980
ITUPSAT 1 22 Jul 03:37:20 03:42:03 59° 72° (ENE) 03:46:46 437.325
nSIGHT-1 22 Jul 03:41:03 03:44:01 32° 15° (NNE) 03:46:58 .
RS-15 22 Jul 03:42:42 03:53:55 48° 250° (WSW) 04:04:37 29.354- 29.394
CUBESAT XI-V 22 Jul 03:50:09 03:52:10 13° 59° (ENE) 03:54:11 437.345
Tancredo 1 22 Jul 04:09:12 04:12:10 80° 30° (NNE) 04:15:08 437.200
BUGSAT 1 22 Jul 04:12:00 04:13:34 12° 300° (WNW) 04:15:07 437.445
KKS-1 22 Jul 04:31:09 04:34:17 19° 62° (ENE) 04:37:26 437.445
ISS 22 Jul 04:31:51 04:35:04 56° 25° (NNE) 04:38:18 437.550
Gurwin Techsat 1B 22 Jul 04:36:34 04:41:26 37° 293° (WNW) 04:46:17 435.225
Oscar 19 22 Jul 04:39:42 04:43:43 23° 298° (WNW) 04:47:44 437.125/150
AO-7 22 Jul 04:40:40 04:48:28 41° 98° (E) 04:56:10 .
ITAMSAT 1 22 Jul 04:43:28 04:48:17 36° 97° (E) 04:53:03 435.822/435.867
MOZHAYETS 4 22 Jul 05:00:03 05:04:05 30° 264° (W) 05:08:08
BEESAT 22 Jul 05:05:44 05:09:19 21° 267° (W) 05:12:55 436.000
STARS 22 Jul 05:10:52 05:14:09 21° 63° (ENE) 05:17:26 437.465
ITUPSAT 1 22 Jul 05:17:08 05:20:14 17° 269° (W) 05:23:21 437.325
nSIGHT-1 22 Jul 05:17:23 05:20:35 63° 214° (SW) 05:23:47 .
CUBESAT XI-V 22 Jul 05:24:17 05:28:52 82° 256° (WSW) 05:33:30 437.345
YUBILEINY 22 Jul 05:34:11 05:40:34 21° 59° (ENE) 05:46:52 435.215
Tancredo 1 22 Jul 05:45:39 05:47:13 14° 226° (SW) 05:48:48 437.200
KKS-1 22 Jul 06:06:08 06:10:28 50° 260° (W) 06:14:52 437.445
PCSat 22 Jul 06:07:41 06:12:08 27° 109° (ESE) 06:16:37 145.827
ISS 22 Jul 06:08:40 06:11:21 23° 222° (SW) 06:14:02 437.550
ITAMSAT 1 22 Jul 06:23:04 06:27:39 32° 295° (WNW) 06:32:12 435.822/435.867
AO-7 22 Jul 06:33:22 06:41:23 52° 298° (WNW) 06:49:20 .
DOVE 4 22 Jul 06:45:29 06:50:30 41° 96° (E) 06:55:22 437.250
STARS 22 Jul 06:45:56 06:50:10 45° 261° (W) 06:54:27 437.465
STRAND 1 22 Jul 06:50:07 06:53:28 18° 59° (ENE) 06:56:50 437.568
XW-2D 22 Jul 07:01:03 07:03:45 19° 93° (E) 07:06:27 145.860 - 145.880
SO-50 22 Jul 07:04:35 07:06:19 12° 108° (ESE) 07:08:04 436.795
XW-2B 22 Jul 07:10:44 07:13:46 23° 94° (E) 07:16:49 145.730 - 145.750
XW-2C 22 Jul 07:27:32 07:31:03 36° 98° (E) 07:34:32 145.795 - 145.815
YUBILEINY 22 Jul 07:29:53 07:38:44 88° 83° (E) 07:47:28 435.215
HO-68 22 Jul 07:32:08 07:35:57 15° 87° (E) 07:39:45 435.675
CUTE-I 22 Jul 07:45:07 07:50:19 48° 99° (E) 07:55:28 437.470
LilacSat-2 22 Jul 07:46:41 07:50:28 67° 101° (ESE) 07:54:13 437.200
NUDT-PHONESAT 22 Jul 07:49:11 07:52:46 49° 100° (E) 07:56:20 437.300
PCSat 22 Jul 07:49:57 07:55:14 51° 308° (NW) 08:00:33 145.827
KAITUO 1B 22 Jul 07:58:20 08:02:02 67° 101° (ESE) 08:05:44 145.475/437.950
CUTE 1.7 + AOD 2 22 Jul 08:07:27 08:10:30 19° 92° (E) 08:13:33 437.475
XW-2F 22 Jul 08:08:06 08:11:51 74° 283° (WNW) 08:15:35 145.980 - 146.000
DOVE 4 22 Jul 08:23:26 08:27:59 30° 294° (WNW) 08:32:26 437.250
FO-29 22 Jul 08:25:26 08:30:18 18° 51° (NE) 08:35:12 435.910
SEEDS 22 Jul 08:26:18 08:29:23 19° 92° (E) 08:32:26 437.485
STRAND 1 22 Jul 08:26:57 08:32:05 71° 257° (WSW) 08:37:15 437.568
XW-2A 22 Jul 08:28:15 08:30:21 16° 93° (E) 08:32:28 145.665 - 145.685
AO-7 22 Jul 08:28:16 08:32:14 14° 321° (NW) 08:36:13 .
XW-2D 22 Jul 08:34:37 08:38:01 33° 290° (WNW) 08:41:25 145.860 - 145.880
SO-50 22 Jul 08:41:34 08:46:06 85° 307° (NW) 08:50:39 436.795
XW-2B 22 Jul 08:44:44 08:47:57 27° 291° (WNW) 08:51:08 145.730 - 145.750
CUBEBUG 2 22 Jul 08:47:17 08:50:55 26° 94° (E) 08:54:26 437.445
XW-2C 22 Jul 09:02:25 09:04:59 18° 294° (WNW) 09:07:32 145.795 - 145.815
Oscar 11 22 Jul 09:12:04 09:13:10 11° 88° (E) 09:14:16 .
TIGRISAT 22 Jul 09:15:29 09:16:53 11° 58° (ENE) 09:18:16 435.000
HO-68 22 Jul 09:17:34 09:24:46 80° 106° (ESE) 09:31:56 435.675
AAUSAT CUBESAT 2 22 Jul 09:19:36 09:23:25 33° 97° (E) 09:27:12 437.432
AO-73 22 Jul 09:20:34 09:23:20 17° 91° (E) 09:26:04 145.935
LilacSat-2 22 Jul 09:23:11 09:24:12 11° 298° (WNW) 09:25:13 437.200
NUDT-PHONESAT 22 Jul 09:24:26 09:26:15 13° 296° (WNW) 09:28:04 437.300
CUTE-I 22 Jul 09:25:42 09:30:05 26° 297° (WNW) 09:34:26 437.470
YUBILEINY 22 Jul 09:28:24 09:34:17 20° 283° (WNW) 09:40:09 435.215
PRISM 22 Jul 09:29:01 09:30:40 12° 60° (ENE) 09:32:19 437.425
KAITUO 1B 22 Jul 09:34:40 09:35:31 11° 298° (WNW) 09:36:22 145.475/437.950
PCSat 22 Jul 09:37:21 09:39:57 13° 330° (NNW) 09:42:34 145.827
CUTE 1.7 + AOD 2 22 Jul 09:42:31 09:46:31 41° 289° (WNW) 09:50:30 437.475
UWE-3 22 Jul 09:52:03 09:56:18 76° 102° (ESE) 10:00:27 435.000/436.395/437.385
XW-2A 22 Jul 10:00:13 10:03:11 30° 290° (WNW) 10:06:07 145.665 - 145.685
SEEDS 22 Jul 10:01:16 10:05:13 40° 289° (WNW) 10:09:10 437.485
UNISAT 6 22 Jul 10:03:31 10:07:41 33° 69° (ENE) 10:11:48 437.425
FO-29 22 Jul 10:06:26 10:13:57 71° 71° (ENE) 10:21:49 435.910
ZACube-1 22 Jul 10:13:23 10:17:34 72° 101° (E) 10:21:42 437.345
CUBEBUG 2 22 Jul 10:23:45 10:27:32 30° 292° (WNW) 10:31:14 437.445
SO-50 22 Jul 10:24:16 10:27:14 17° 326° (NW) 10:30:12 436.795
EO-88 22 Jul 10:35:42 10:37:16 12° 90° (E) 10:38:51 145.990 - 145.960
M-CUBED/EXP-1 PRIME 22 Jul 10:44:00 10:47:31 57° 67° (ENE) 10:51:21 437.505
Oscar 11 22 Jul 10:45:31 10:49:50 76° 285° (WNW) 10:54:08 .
TIGRISAT 22 Jul 10:48:09 10:52:50 84° 76° (ENE) 10:57:28 435.000
DELFI C3 22 Jul 10:52:18 10:55:57 33° 97° (E) 10:59:34 145.870
AAUSAT CUBESAT 2 22 Jul 10:55:23 10:58:42 23° 293° (WNW) 11:02:01 437.432
AO-73 22 Jul 10:55:51 10:59:48 43° 289° (WNW) 11:03:42 145.935
PRISM 22 Jul 11:01:17 11:05:21 72° 257° (WSW) 11:09:30 437.425
HO-68 22 Jul 11:06:21 11:11:44 24° 306° (NW) 11:17:08 435.675
POLYITAN 1 22 Jul 11:09:59 11:10:53 11° 59° (ENE) 11:11:48 437.675
QB50P2 22 Jul 11:21:05 11:23:32 15° 62° (ENE) 11:26:00 145.880/145.840
UWE-3 22 Jul 11:30:36 11:32:08 12° 300° (WNW) 11:33:39 435.000/436.395/437.385
EO-79 22 Jul 11:33:45 11:36:42 18° 63° (ENE) 11:39:38 145.935-145.965
NANOSAT C BR1 22 Jul 11:36:02 11:38:53 18° 63° (ENE) 11:41:43 145.865
UNISAT 6 22 Jul 11:40:23 11:44:23 28° 265° (W) 11:48:22 437.425
ZACube-1 22 Jul 11:51:38 11:53:16 12° 300° (WNW) 11:54:54 437.345
